Regional Weather Roundup
Issued by NWS

Home | Current Version | Previous Version | Graphics & Text | Print | Product List | Glossary On
Versions: 1 2 3 4 5 6 7 8 9 10 11 12 13 14 15 16 17 18 19 20 21 22 23 24 25 26 27 28 29 30 31 32 33 34 35 36 37 38 39 40 41 42 43 44 45 46 47 48 49 50
669
ASUS45 KPSR 232010
RWRAZ

ARIZONA HOURLY REGIONAL WEATHER ROUNDUP
NATIONAL WEATHER SERVICE PHOENIX AZ
100 PM MST MON JAN 23 2017

NOTE: FAIR INDICATES FEW OR NO CLOUDS BELOW 12,000 FEET WITH NO
SIGNIFICANT WEATHER AND/OR OBSTRUCTIONS TO VISIBILITY.

AZZ001>003-036-232100-
NORTHWEST ARIZONA

CITY           SKY/WX    TMP DP  RH WIND       PRES   REMARKS
BULLHEAD CITY  PTSUNNY   61  37  41 SW13G18   29.78F
KINGMAN        PTSUNNY   45  38  76 SW20      29.77F
$$

AZZ004>008-015-016-018-232100-
NORTH CENTRAL ARIZONA

CITY           SKY/WX    TMP DP  RH WIND       PRES   REMARKS
GRAND CANYON   CLOUDY    33  30  88 SW18G32   29.71F WCI  22
WILLIAMS       CLOUDY    32  28  86 SW20G38   29.74F HAZE    WCI  20
PRESCOTT       LGT RAIN  37  35  92 SW15G22   29.81F FOG     WCI  28
FLAGSTAFF      SNOW      32  31  96 SW18G30   29.72F VSB 1/2 WCI  20
PAYSON         LGT RAIN  37  37 100 S10       29.86F VSB<1/4 WCI  30
PAGE           RAIN      38  30  73 W18G30    29.67R WCI  28
$$

AZZ009>014-017-232100-
NORTHEAST ARIZONA

CITY           SKY/WX    TMP DP  RH WIND       PRES   REMARKS
WINSLOW        CLOUDY    49  36  61 S22G31    29.76F
SAINT JOHNS    SUNNY     54  32  43 SW36G51   29.77F
SHOW LOW       MIX PCPN  36  28  75 S24G38    29.83F WCI  24
$$

AZZ023-232100-
GREATER PHOENIX AREA

CITY           SKY/WX    TMP DP  RH WIND       PRES   REMARKS
PHOENIX        CLOUDY    60  41  49 CALM      29.83F
BUCKEYE        MOSUNNY   59  50  72 S3        29.84F
GLENDALE       LGT RAIN  55  48  76 SW6       29.86F
LUKE AFB       LGT RAIN  56  50  80 S5        29.83F
DEER VALLEY    LGT RAIN  53  47  79 E5        29.84F
SCOTTSDALE     CLOUDY    57  38  48 CALM      29.86F
MESA-FALCON    PTSUNNY  N/A N/A N/A S14G20    29.82F
MESA-GATEWAY   CLOUDY    61  46  59 S17       29.86F
CHANDLER       CLOUDY    63  46  55 SW16G32   29.84F
$$

AZZ027-028-232100-
SOUTHWEST MARICOPA COUNTY AND PINAL COUNTY

CITY           SKY/WX    TMP DP  RH WIND       PRES   REMARKS
CASA GRANDE    CLOUDY    61  47  59 SW18      29.86F
GILA BEND      MOSUNNY   65  47  53 SW21      29.82F
$$

AZZ503-504-507>509-232100-
SOUTHEAST ARIZONA

CITY           SKY/WX    TMP DP  RH WIND       PRES   REMARKS
TUCSON         CLOUDY    66  43  43 W18G26    29.88F
DAVIS-MONTHAN  MOSUNNY   67  43  42 SW15G23   29.87F
RYAN FIELD     SUNNY     68  43  40 SW25G38   29.88F
NOGALES        CLOUDY    61  41  47 SW18G31   29.95F
SIERRA VISTA   MOSUNNY   60  35  39 SW21G32   29.93F
DOUGLAS        SUNNY     65  36  34 SW20G30   29.93F
SAFFORD        SUNNY     66  35  31 S15G24    29.84F
$$

AZZ020-021-025-026-031-232100-
SOUTHWEST ARIZONA

CITY           SKY/WX    TMP DP  RH WIND       PRES   REMARKS
YUMA           PTSUNNY   66  40  38 W12       29.86F
$$

CAZ031-033-041-043-047-048-061-232100-
SOUTHERN CALIFORNIA

CITY           SKY/WX    TMP DP  RH WIND       PRES   REMARKS
DOWNTOWN L.A.  HVY RAIN  51  45  79 VRB5      29.89R
L.A. AIRPORT   RAIN      50  45  83 W15       29.89F FOG
SAN DIEGO      LGT RAIN  56  45  66 SW13      29.95F
BURBANK        LGT RAIN  47  41  80 W3        29.87F
ONTARIO        HAIL      44  44 100 N3        29.85F
RIVERSIDE      PTSUNNY   52  46  80 SW13      29.86F
PALM SPRINGS   LGT RAIN  51  43  74 N14G26    29.86F
EL CENTRO NAS  PTSUNNY   58  41  53 W20       29.91F
IMPERIAL       MOSUNNY   61  43  51 W23G31    29.86F
BLYTHE         SUNNY     62  39  42 SW26G32   29.84F
NEEDLES        PTSUNNY   63  36  36 SW13G25   29.78F
$$

NVZ020-UTZ003-232100-
SOUTHERN NEVADA-UTAH

CITY           SKY/WX    TMP DP  RH WIND       PRES   REMARKS
LAS VEGAS      PTSUNNY   50  30  46 SW25G33   29.69F
SALT LAKE CITY CLOUDY    40  28  62 S22G29    29.42F WCI  30
$$

NMZ009-TXZ055-232100-
NEW MEXICO-WEST TEXAS

CITY           SKY/WX    TMP DP  RH WIND       PRES   REMARKS
ALBUQUERQUE    MOSUNNY   54  27  35 S22G29    29.81F
EL PASO        MOSUNNY   63  32  31 S13       29.94F
$$


........................KEY........................
SKY/WX - SKY CONDITION/WEATHER
TMP    - TEMPERATURE IN FAHRENHEIT
DP     - DEW POINT IN FAHRENHEIT
RH     - RELATIVE HUMIDITY IN PERCENT
WIND   - DIRECTION AND SPEED IN MILES PER HOUR (MPH)
VRB    - VARIABLE WIND DIRECTION
PRES   - MEAN SEA LEVEL PRESSURE IN INCHES OF MERCURY
         F - FALLING PRESSURE   R - RISING PRESSURE
         S - STEADY PRESSURE
VSB    - VISIBILITY IN MILES
HX     - HEAT INDEX IN FAHRENHEIT
WCI    - WIND CHILL INDEX IN FAHRENHEIT
TC     - TEMPERATURE IN CELSIUS WHICH IS ALSO KNOWN AS
         TEMPERATURE IN CENTIGRADE
AFB    - AIR FORCE BASE
         LUKE AFB IS LUKE AIR FORCE BASE
         DAVIS-MONTHAN IS DAVIS-MONTHAN AIR FORCE BASE
NAS    - NAVAL AIR STATION
         EL CENTRO NAS IS EL CENTRO NAVAL AIR STATION
N/A    - NOT AVAILABLE





USA.gov is the U.S. government's official web portal to all federal, state and local government web resources and services.